Weather History for KFAF - October, 2012

Change the Weather History Date:

Tuesday, October 9, 2012

  Actual Average Record
Temperature  
Mean Temperature 56 °F -  
Max Temperature 58 °F 71 °F 91 °F (2007)
Min Temperature 53 °F 53 °F 35 °F (2001)
Degree Days  
Heating Degree Days 9    
Growing Degree Days 6 (Base 50)    
Moisture  
Dew Point 54 °F    
Average Humidity 95    
Maximum Humidity 100    
Minimum Humidity 88    
Precipitation  
Precipitation 0.12 in - - ()
Sea Level Pressure  
Sea Level Pressure 30.09 in    
Wind  
Wind Speed 7 mph (North)    
Max Wind Speed 13 mph    
Max Gust Speed 18 mph    
Visibility 8 miles    
Events Rain    
Averages and records for this station are not official NWS values.
T = Trace of Precipitation, MM = Missing Value Source: NWS Daily Summary

Daily Weather History Graph

Daily Weather History Graph

Search for Another Location

Airport or City:

Trip Planner

Search our weather history database for the weather conditions in past years. The results will help you decide how hot, cold, wet, or windy it might be!

Date:

Astronomy

Oct. 09, 2012 Rise Set
Actual Time 7:09 AM EDT 6:37 PM EDT
Civil Twilight 6:43 AM EDT 7:03 PM EDT
Nautical Twilight 6:13 AM EDT 7:33 PM EDT
Astronomical Twilight 5:42 AM EDT 8:03 PM EDT
Moon 12:51 AM EDT (10/9) 2:56 PM EDT (10/9)
Length of Visible Light 12h 20m
Length of Day
11h 28m
Last Quarter, 37% of the Moon is Illuminated
Oct 9
Last Quarter
Oct 15
New
Oct 21
First Quarter
Oct 29
Full
Nov 6
Last Quarter

Hourly Weather History & Observations

Time (EDT) Temp. Dew Point Humidity Pressure Visibility Wind Dir Wind Speed Gust Speed Precip Events Conditions
12:13 AM 53.6 °F 51.8 °F 94% 30.12 in 10.0 mi North 6.9 mph - N/A   Light Drizzle
12:18 AM 53.6 °F 51.8 °F 94% 30.12 in 10.0 mi Variable 6.9 mph - N/A   Light Drizzle
12:36 AM 53.6 °F 53.6 °F 100% 30.11 in 8.0 mi North 9.2 mph - N/A   Light Drizzle
12:55 AM 53.8 °F 52.3 °F 95% 30.10 in 9.0 mi North 6.9 mph - 0.00 in   Light Drizzle
1:15 AM 53.6 °F 51.8 °F 94% 30.09 in 8.0 mi North 6.9 mph - N/A   Light Drizzle
1:17 AM 53.6 °F 51.8 °F 94% 30.09 in 8.0 mi North 8.1 mph - N/A   Light Drizzle
1:29 AM 53.6 °F 53.6 °F 100% 30.10 in 8.0 mi Variable 6.9 mph - N/A   Light Drizzle
1:40 AM 53.6 °F 53.6 °F 100% 30.10 in 8.0 mi North 8.1 mph - N/A   Light Drizzle
1:52 AM 53.6 °F 53.6 °F 100% 30.10 in 7.0 mi North 9.2 mph 17.3 mph N/A   Light Drizzle
1:55 AM 54.1 °F 52.7 °F 95% 30.10 in 7.0 mi North 10.4 mph 17.3 mph 0.00 in   Light Drizzle
2:00 AM 53.6 °F 53.6 °F 100% 30.10 in 7.0 mi North 12.7 mph 18.4 mph N/A   Light Drizzle
2:30 AM 53.6 °F 51.8 °F 94% 30.10 in 7.0 mi North 9.2 mph - N/A Rain Light Rain
2:52 AM 53.6 °F 51.8 °F 94% 30.10 in 6.0 mi North 8.1 mph - N/A Rain Light Rain
2:55 AM 54.0 °F 52.7 °F 95% 30.10 in 6.0 mi North 8.1 mph - 0.02 in Rain Light Rain
3:55 AM 54.0 °F 52.5 °F 95% 30.10 in 7.0 mi North 8.1 mph - 0.03 in Rain Light Rain
4:46 AM 53.6 °F 53.6 °F 100% 30.09 in 7.0 mi North 9.2 mph - N/A Rain Light Rain
4:55 AM 53.8 °F 52.5 °F 95% 30.10 in 8.0 mi North 11.5 mph - 0.03 in Rain Light Rain
5:00 AM 53.6 °F 51.8 °F 94% 30.09 in 8.0 mi North 10.4 mph - N/A Rain Light Rain
5:55 AM 53.8 °F 52.3 °F 95% 30.09 in 10.0 mi Variable 6.9 mph - 0.00 in Rain Light Rain
6:55 AM 53.8 °F 52.2 °F 94% 30.10 in 10.0 mi North 8.1 mph - 0.01 in   Light Drizzle
7:13 AM 53.6 °F 51.8 °F 94% 30.09 in 4.0 mi North 8.1 mph - N/A   Light Drizzle
7:55 AM 53.2 °F 51.6 °F 94% 30.12 in 4.0 mi North 9.2 mph - 0.00 in   Light Drizzle
8:08 AM 53.6 °F 51.8 °F 94% 30.12 in 4.0 mi North 8.1 mph - N/A Rain Light Rain
8:19 AM 53.6 °F 51.8 °F 94% 30.12 in 8.0 mi North 10.4 mph - N/A Rain Light Rain
8:42 AM 53.6 °F 51.8 °F 94% 30.12 in 4.0 mi North 10.4 mph - N/A Rain Light Rain
8:55 AM 53.4 °F 51.6 °F 94% 30.13 in 10.0 mi North 9.2 mph - 0.03 in   Light Drizzle
8:59 AM 53.6 °F 51.8 °F 94% 30.13 in 10.0 mi North 11.5 mph - N/A   Overcast
9:55 AM 54.3 °F 52.2 °F 92% 30.13 in 10.0 mi North 9.2 mph 17.3 mph 0.00 in   Overcast
11:55 AM 57.0 °F 54.1 °F 90% 30.12 in 10.0 mi North 6.9 mph - N/A   Overcast
12:55 PM 57.9 °F 55.0 °F 90% 30.10 in 10.0 mi North 5.8 mph - N/A   Overcast
1:55 PM 58.6 °F 55.8 °F 90% 30.08 in 10.0 mi North 5.8 mph - N/A   Overcast
2:55 PM 58.8 °F 56.1 °F 91% 30.08 in 10.0 mi North 8.1 mph - 0.00 in   Light Drizzle
3:32 PM 59.0 °F 55.4 °F 88% 30.07 in 10.0 mi North 5.8 mph - N/A   Overcast
3:55 PM 58.5 °F 56.1 °F 92% 30.07 in 10.0 mi North 4.6 mph - 0.00 in   Overcast
4:55 PM 58.8 °F 56.5 °F 92% 30.07 in 10.0 mi North 4.6 mph - N/A   Overcast
5:04 PM 59.0 °F 57.2 °F 94% 30.07 in 10.0 mi NNE 4.6 mph - N/A   Overcast
5:49 PM 59.0 °F 57.2 °F 94% 30.07 in 10.0 mi North 4.6 mph - N/A   Overcast
5:55 PM 58.3 °F 56.7 °F 94% 30.07 in 10.0 mi North 5.8 mph - N/A   Overcast
6:37 PM 59.0 °F 57.2 °F 94% 30.07 in 10.0 mi North 5.8 mph - N/A   Light Drizzle
6:49 PM 59.0 °F 57.2 °F 94% 30.07 in 10.0 mi Variable 5.8 mph - N/A   Overcast
6:55 PM 58.6 °F 57.2 °F 95% 30.07 in 10.0 mi NNW 5.8 mph - 0.00 in   Overcast
7:55 PM 58.6 °F 57.2 °F 95% 30.07 in 10.0 mi Variable 4.6 mph - N/A   Overcast
8:27 PM 59.0 °F 57.2 °F 94% 30.07 in 9.0 mi North 3.5 mph - N/A   Overcast
8:49 PM 59.0 °F 57.2 °F 94% 30.07 in 9.0 mi North 6.9 mph - N/A   Overcast
8:55 PM 58.8 °F 57.4 °F 95% 30.07 in 9.0 mi North 4.6 mph - N/A   Overcast
9:50 PM 59.0 °F 57.2 °F 94% 30.07 in 5.0 mi North 4.6 mph - N/A   Light Drizzle
9:55 PM 58.6 °F 57.7 °F 97% 30.07 in 5.0 mi North 4.6 mph - 0.00 in   Light Drizzle
10:34 PM 59.0 °F 57.2 °F 94% 30.06 in 4.0 mi Calm Calm - N/A   Light Drizzle
10:55 PM 58.6 °F 57.7 °F 97% 30.06 in 5.0 mi North 4.6 mph - 0.00 in   Light Drizzle
11:11 PM 59.0 °F 57.2 °F 94% 30.06 in 6.0 mi NNW 4.6 mph - N/A   Light Drizzle
11:55 PM 58.6 °F 57.7 °F 97% 30.05 in 8.0 mi North 3.5 mph - 0.00 in   Light Drizzle